Tracking 23762 objects as of 22-Oct-2021
HD Live streaming from Space Station
objects crossing your sky now

COSMOS 1470

Track COSMOS 1470 now!
10-day predictions
COSMOS 1470 is classified as:


NORAD ID: 14147
Int'l Code: 1983-061A
Perigee: 527.4 km
Apogee: 548.0 km
Inclination: 82.5 °
Period: 95.2 minutes
Semi major axis: 6908 km
RCS: 8.3388 m2 (large)
Launch date: June 23, 1983
Source: Commonwealth of Independent States (former USSR) (CIS)
Launch site: PLESETSK MISSILE AND SPACE COMPLEX (PKMTR)
aabbcc
Your satellite tracking list
Your tracking list is empty




NASA's NSSDC Master Catalog

Two Line Element Set (TLE):
1 14147U 83061A   21294.70545096  .00001470  00000-0  84067-4 0  9990
2 14147  82.4798 278.6289 0014891 192.7679 167.3177 15.11843416844296
Source of the keplerian elements: AFSPC